When you browse on this site, cookies collect data to enhance your experience and personalize the content and advertising you see.
Visit our Privacy Policy to learn more. By continuing to use the site, you agree to this use of cookies and data.
  • In Austria
  • List of Countries
  • For 7 days
  • Water Temperature
  • Weather Map
  • News
  • Weather Widgets
  • user-avatar
    Login

    Hourly Weather Subachoque

    Today, 23 September, Monday

    Time Temperature Precipitation Wind Pressure Humidity
    00:00 +10°C° 0.1 mm 1 mps 553 mmHg 89%
    01:00 +10°C° 0 mm 1 mps 553 mmHg 89%
    02:00 +10°C° 0.2 mm 1 mps 553 mmHg 89%
    03:00 +10°C° 0.2 mm 1 mps 553 mmHg 88%
    04:00 +10°C° 0.2 mm 1 mps 553 mmHg 88%
    05:00 +10°C° 0.1 mm 1 mps 553 mmHg 86%
    06:00 +11°C° 0.1 mm 1 mps 554 mmHg 84%
    07:00 +12°C° 0 mm 1 mps 555 mmHg 81%
    08:00 +14°C° 0.1 mm 1 mps 556 mmHg 74%
    09:00 +16°C° 0.1 mm 1 mps 557 mmHg 68%
    10:00 +19°C° 0.1 mm 1 mps 558 mmHg 61%
    11:00 +18°C° 0.4 mm 1 mps 557 mmHg 64%
    12:00 +18°C° 0.4 mm 1 mps 556 mmHg 67%
    13:00 +17°C° 0.4 mm 2 mps 555 mmHg 71%
    14:00 +17°C° 0.9 mm 2 mps 554 mmHg 73%
    15:00 +18°C° 0.9 mm 1 mps 554 mmHg 75%
    16:00 +16°C° 0.9 mm 1 mps 554 mmHg 77%
    17:00 +15°C° 0.9 mm 1 mps 553 mmHg 80%
    18:00 +14°C° 0.9 mm 1 mps 553 mmHg 83%
    19:00 +13°C° 0.9 mm 1 mps 553 mmHg 87%
    20:00 +13°C° 0.4 mm 1 mps 553 mmHg 87%
    21:00 +12°C° 0.4 mm 1 mps 554 mmHg 87%
    22:00 +12°C° 0.4 mm 1 mps 554 mmHg 87%
    23:00 +12°C° 0.1 mm 1 mps 554 mmHg 87%

    Tomorrow, 24 September, Tuesday

    Time Temperature Precipitation Wind Pressure Humidity
    00:00 +11°C° 0.1 mm 1 mps 553 mmHg 87%
    01:00 +11°C° 0.1 mm 1 mps 553 mmHg 86%
    02:00 +11°C° 0 mm 1 mps 553 mmHg 87%
    03:00 +10°C° 0 mm 1 mps 553 mmHg 87%
    04:00 +10°C° 0 mm 1 mps 552 mmHg 87%
    05:00 +11°C° 0 mm 1 mps 553 mmHg 85%
    06:00 +11°C° 0 mm 1 mps 554 mmHg 83%
    07:00 +12°C° 0 mm 1 mps 554 mmHg 82%
    08:00 +14°C° 0.1 mm 1 mps 555 mmHg 75%
    09:00 +16°C° 0.1 mm 1 mps 557 mmHg 69%
    10:00 +18°C° 0.1 mm 1 mps 558 mmHg 62%
    11:00 +18°C° 0.6 mm 1 mps 557 mmHg 66%
    12:00 +18°C° 0.6 mm 1 mps 556 mmHg 70%
    13:00 +18°C° 0.6 mm 1 mps 555 mmHg 74%
    14:00 +16°C° 0.9 mm 1 mps 555 mmHg 78%
    15:00 +15°C° 0.9 mm 1 mps 554 mmHg 81%
    16:00 +15°C° 0.9 mm 1 mps 553 mmHg 85%
    17:00 +14°C° 1.1 mm 1 mps 553 mmHg 87%
    18:00 +13°C° 1.1 mm 1 mps 553 mmHg 89%
    19:00 +12°C° 1.1 mm 1 mps 553 mmHg 91%
    20:00 +12°C° 0.8 mm 1 mps 554 mmHg 90%
    21:00 +12°C° 0.8 mm 1 mps 554 mmHg 89%
    22:00 +12°C° 0.8 mm 1 mps 554 mmHg 88%
    23:00 +12°C° 0.2 mm 1 mps 554 mmHg 88%

    Day after tomorrow, 25 September, Wednesday

    Time Temperature Precipitation Wind Pressure Humidity
    00:00 +12°C° 0.2 mm 1 mps 554 mmHg 88%
    01:00 +12°C° 0.2 mm 1 mps 554 mmHg 88%
    02:00 +11°C° 0.1 mm 0 mps 553 mmHg 88%
    03:00 +11°C° 0.1 mm 0 mps 553 mmHg 88%
    04:00 +11°C° 0.1 mm 0 mps 553 mmHg 88%
    05:00 +11°C° 0.1 mm 0 mps 554 mmHg 87%
    06:00 +11°C° 0.1 mm 0 mps 554 mmHg 86%
    07:00 +11°C° 0.1 mm 0 mps 555 mmHg 86%
    08:00 +12°C° 0.4 mm 0 mps 556 mmHg 83%
    09:00 +13°C° 0.4 mm 0 mps 556 mmHg 81%
    10:00 +15°C° 0.4 mm 1 mps 557 mmHg 78%
    11:00 +16°C° 0.9 mm 1 mps 556 mmHg 77%
    12:00 +16°C° 0.9 mm 1 mps 556 mmHg 76%
    13:00 +18°C° 0.9 mm 1 mps 555 mmHg 74%
    14:00 +18°C° 0.8 mm 1 mps 555 mmHg 74%
    15:00 +18°C° 0.8 mm 1 mps 554 mmHg 73%
    16:00 +18°C° 0.8 mm 1 mps 554 mmHg 73%
    17:00 +16°C° 1.2 mm 1 mps 554 mmHg 78%
    18:00 +14°C° 1.2 mm 1 mps 553 mmHg 83%
    19:00 +13°C° 1.2 mm 1 mps 553 mmHg 89%
    20:00 +12°C° 0.6 mm 1 mps 553 mmHg 90%
    21:00 +12°C° 0.6 mm 1 mps 554 mmHg 90%
    22:00 +11°C° 0.6 mm 1 mps 554 mmHg 91%
    23:00 +11°C° 0.2 mm 1 mps 553 mmHg 91%

    26 September, Thursday

    Time Temperature Precipitation Wind Pressure Humidity
    00:00 +11°C° 0.2 mm 1 mps 553 mmHg 91%
    01:00 +10°C° 0.2 mm 1 mps 553 mmHg 91%
    02:00 +10°C° 0 mm 1 mps 552 mmHg 91%
    03:00 +10°C° 0 mm 1 mps 552 mmHg 90%
    04:00 +10°C° 0 mm 1 mps 552 mmHg 90%
    05:00 +11°C° 0 mm 1 mps 553 mmHg 89%
    06:00 +11°C° 0 mm 1 mps 553 mmHg 88%
    07:00 +11°C° 0 mm 1 mps 554 mmHg 87%
    08:00 +13°C° 0.1 mm 1 mps 555 mmHg 82%
    09:00 +14°C° 0.1 mm 1 mps 555 mmHg 77%
    10:00 +15°C° 0.1 mm 1 mps 556 mmHg 72%
    11:00 +16°C° 0.5 mm 1 mps 556 mmHg 73%
    12:00 +16°C° 0.5 mm 2 mps 555 mmHg 73%
    13:00 +16°C° 0.5 mm 2 mps 555 mmHg 73%
    14:00 +16°C° 0.8 mm 2 mps 554 mmHg 75%
    15:00 +16°C° 0.8 mm 1 mps 554 mmHg 77%
    16:00 +15°C° 0.8 mm 1 mps 553 mmHg 78%
    17:00 +14°C° 0.5 mm 1 mps 553 mmHg 81%
    18:00 +13°C° 0.5 mm 1 mps 553 mmHg 84%
    19:00 +12°C° 0.5 mm 1 mps 553 mmHg 87%
    20:00 +12°C° 0.1 mm 1 mps 553 mmHg 87%
    21:00 +12°C° 0.1 mm 1 mps 553 mmHg 87%
    22:00 +12°C° 0.1 mm 1 mps 554 mmHg 87%
    23:00 +11°C° 0 mm 1 mps 553 mmHg 87%

    27 September, Friday

    Time Temperature Precipitation Wind Pressure Humidity
    00:00 +10°C° 0 mm 1 mps 553 mmHg 88%
    01:00 +10°C° 0 mm 1 mps 552 mmHg 89%
    02:00 +10°C° 0 mm 1 mps 552 mmHg 88%
    03:00 +10°C° 0 mm 1 mps 552 mmHg 87%
    04:00 +10°C° 0 mm 1 mps 552 mmHg 87%
    05:00 +11°C° 0 mm 1 mps 553 mmHg 85%
    06:00 +11°C° 0 mm 1 mps 554 mmHg 83%
    07:00 +12°C° 0 mm 1 mps 554 mmHg 81%
    08:00 +14°C° 0.2 mm 1 mps 555 mmHg 76%
    09:00 +16°C° 0.2 mm 1 mps 556 mmHg 71%
    10:00 +18°C° 0.2 mm 1 mps 557 mmHg 66%
    11:00 +17°C° 1.2 mm 2 mps 557 mmHg 70%
    12:00 +17°C° 1.2 mm 2 mps 556 mmHg 74%
    13:00 +17°C° 1.2 mm 2 mps 555 mmHg 77%
    14:00 +16°C° 1.2 mm 2 mps 554 mmHg 78%
    15:00 +16°C° 1.2 mm 1 mps 554 mmHg 79%
    16:00 +16°C° 1.2 mm 1 mps 553 mmHg 80%
    17:00 +15°C° 0.7 mm 1 mps 553 mmHg 83%
    18:00 +13°C° 0.7 mm 1 mps 553 mmHg 87%
    19:00 +12°C° 0.7 mm 1 mps 552 mmHg 91%
    20:00 +11°C° 0.2 mm 1 mps 552 mmHg 90%
    21:00 +11°C° 0.2 mm 1 mps 552 mmHg 90%
    22:00 +11°C° 0.2 mm 1 mps 553 mmHg 89%
    23:00 +10°C° 0.1 mm 1 mps 552 mmHg 89%

    28 September, Saturday

    Time Temperature Precipitation Wind Pressure Humidity
    00:00 +10°C° 0.1 mm 1 mps 552 mmHg 89%
    01:00 +10°C° 0.1 mm 1 mps 552 mmHg 89%
    02:00 +10°C° 0 mm 1 mps 552 mmHg 89%
    03:00 +10°C° 0 mm 1 mps 552 mmHg 88%
    04:00 +9°C° 0 mm 1 mps 551 mmHg 88%
    05:00 +10°C° 0 mm 1 mps 552 mmHg 85%
    06:00 +11°C° 0 mm 1 mps 553 mmHg 83%
    07:00 +12°C° 0 mm 1 mps 554 mmHg 81%
    08:00 +14°C° 0.1 mm 1 mps 555 mmHg 74%
    09:00 +16°C° 0.1 mm 1 mps 556 mmHg 67%
    10:00 +19°C° 0.1 mm 1 mps 557 mmHg 60%
    11:00 +19°C° 0.5 mm 1 mps 556 mmHg 63%
    12:00 +19°C° 0.5 mm 1 mps 556 mmHg 66%
    13:00 +19°C° 0.5 mm 1 mps 555 mmHg 69%
    14:00 +18°C° 1.1 mm 1 mps 554 mmHg 74%
    15:00 +16°C° 1.1 mm 1 mps 553 mmHg 79%
    16:00 +16°C° 1.1 mm 1 mps 553 mmHg 84%
    17:00 +15°C° 1.6 mm 1 mps 552 mmHg 86%
    18:00 +13°C° 1.6 mm 0 mps 552 mmHg 89%
    19:00 +12°C° 1.6 mm 0 mps 552 mmHg 91%
    20:00 +11°C° 0.7 mm 0 mps 552 mmHg 91%
    21:00 +11°C° 0.7 mm 0 mps 552 mmHg 91%
    22:00 +10°C° 0.7 mm 0 mps 552 mmHg 91%
    23:00 +10°C° 0.3 mm 0 mps 552 mmHg 92%
    Show more